Вернуться в каталог

NOAA 16 DEB

АктивенSSO
NORAD 41089·DEBRIS·🇺🇸 United States

Запущен Sep 21, 2000 с Vandenberg Space Force Base

Loading…

Ближайшие Пролёты (ближайшие 24 часа)

TLE

СвежийSource: Space-Track

Эпоха: Sep 12, 2026, 10:47 UTC

1 41089U 00055AY  26255.44990693  .00002865  00000-0  10201-2 0  9993
2 41089  98.6854 338.8556 0006479 216.1066 143.9682 14.35055173558139

Отслеживайте NOAA 16 DEB в реальном времени с AllMySat

Download on the App Store